Location: Newark
(48.1500°N, 13.1167°E)
Time: 12:38:20
(UTC+00:00)

X-37B - Visible Passes

Search period start: 21 September 2021 00:00
Search period end: 01 October 2021 00:00
Orbit: 381 x 393 km, 45.0° (Epoch: 29 August)

Date Brightness Start Highest point End Pass type
(mag) Time Alt. Az. Time Alt. Az. Time Alt. Az.
21 Sep 2.9 04:20:17 10° SSW 04:22:35 19° SSE 04:24:54 10° ESE visible
22 Sep 3.3 03:23:03 10° S 03:24:27 12° SSE 03:25:51 10° ESE visible
23 Sep 2.2 03:59:32 10° SW 04:02:15 26° SSE 04:04:59 10° E visible
24 Sep 2.6 03:03:52 19° SSE 03:04:04 19° SSE 03:06:21 10° ESE visible
25 Sep 1.6 03:40:29 22° SW 03:41:57 35° SSE 03:44:54 10° E visible
26 Sep 2.7 02:44:46 22° SE 02:44:46 22° SE 02:46:26 10° E visible
26 Sep 1.2 04:17:04 11° WSW 04:20:01 47° S 04:23:06 10° ESE visible
27 Sep 1.1 03:21:20 40° SSW 03:21:43 43° S 03:24:44 10° E visible
28 Sep 3.4 02:25:37 15° ESE 02:25:37 15° ESE 02:26:22 10° E visible
28 Sep 1.1 03:57:54 20° WSW 03:59:48 46° S 04:02:51 10° ESE visible
29 Sep 1.6 03:02:12 38° SE 03:02:12 38° SE 03:04:33 10° ESE visible
30 Sep 1.2 03:38:49 34° SW 03:39:34 40° S 03:42:34 10° ESE visible
